Oakdale, LA

1:45 AM CST on February 28, 2017 (GMT -0600)
Oakdale

Weather History for KACP - April, 2012

Change the Weather History Date:

Tuesday, April 10, 2012

  Actual Average (KPOE) Record (KPOE)
Temperature  
Mean Temperature 70 °F -  
Max Temperature 84 °F 73 °F 88 °F (2011)
Min Temperature 57 °F 54 °F 33 °F (2003)
Cooling Degree Days 6    
Growing Degree Days 20 (Base 50)    
Moisture  
Dew Point 60 °F    
Average Humidity 76    
Maximum Humidity 100    
Minimum Humidity 40    
Precipitation  
Precipitation 0.13 in - - ()
Sea Level Pressure  
Sea Level Pressure 30.09 in    
Wind  
Wind Speed 1 mph (SW)    
Max Wind Speed 9 mph    
Max Gust Speed -    
Visibility 9 miles    
Events Rain , Thunderstorm    
Averages and records for this station are not official NWS values.
T = Trace of Precipitation, MM = Missing Value Source: NWS Daily Summary

Daily Weather History Graph

Daily Weather History Graph

Search for Another Location

Airport or City:

Trip Planner

Search our weather history database for the weather conditions in past years. The results will help you decide how hot, cold, wet, or windy it might be!

Date:

Astronomy

Apr. 10, 2012 Rise Set
Actual Time 6:48 AM CDT 7:35 PM CDT
Civil Twilight 6:23 AM CDT 8:00 PM CDT
Nautical Twilight 5:54 AM CDT 8:29 PM CDT
Astronomical Twilight 5:25 AM CDT 8:59 PM CDT
Moon No Moon Rise 9:49 AM CDT (4/10)
Length of Visible Light 13h 36m
Length of Day
12h 47m
Waning Gibbous, 79% of the Moon is Illuminated
Apr 10
Waning Gibbous
Apr 13
Last Quarter
Apr 21
New
Apr 29
First Quarter
May 5
Full

Hourly Weather History & Observations

Time (CDT) Temp. Heat Index Dew Point Humidity Pressure Visibility Wind Dir Wind Speed Gust Speed Precip Events Conditions
12:15 AM 62.6 °F - 62.6 °F 100% 30.10 in 7.0 mi Calm Calm - N/A   Clear
12:35 AM 60.8 °F - 60.8 °F 100% 30.10 in 10.0 mi Calm Calm - N/A   Clear
12:55 AM 60.8 °F - 60.8 °F 100% 30.10 in 7.0 mi Calm Calm - N/A   Clear
1:15 AM 60.8 °F - 60.8 °F 100% 30.10 in 7.0 mi Calm Calm - N/A   Clear
1:35 AM 60.8 °F - 60.8 °F 100% 30.10 in 7.0 mi Calm Calm - N/A   Clear
1:55 AM 60.8 °F - 60.8 °F 100% 30.09 in 7.0 mi Calm Calm - N/A   Clear
2:15 AM 59.0 °F - 59.0 °F 100% 30.09 in 10.0 mi Calm Calm - N/A   Clear
2:35 AM 59.0 °F - 59.0 °F 100% 30.10 in 7.0 mi Calm Calm - N/A   Clear
2:55 AM 59.0 °F - 59.0 °F 100% 30.09 in 7.0 mi Calm Calm - N/A   Clear
3:15 AM 59.0 °F - 59.0 °F 100% 30.09 in 7.0 mi Calm Calm - N/A   Clear
3:35 AM 59.0 °F - 59.0 °F 100% 30.09 in 7.0 mi Calm Calm - N/A   Clear
3:55 AM 59.0 °F - 59.0 °F 100% 30.09 in 7.0 mi Calm Calm - N/A   Clear
4:15 AM 59.0 °F - 59.0 °F 100% 30.09 in 7.0 mi Calm Calm - N/A   Clear
4:35 AM 59.0 °F - 59.0 °F 100% 30.10 in 7.0 mi Calm Calm - N/A   Clear
4:55 AM 59.0 °F - 59.0 °F 100% 30.09 in 7.0 mi Calm Calm - N/A   Clear
5:15 AM 59.0 °F - 59.0 °F 100% 30.10 in 7.0 mi Calm Calm - N/A   Clear
5:55 AM 57.2 °F - 57.2 °F 100% 30.11 in 7.0 mi Calm Calm - N/A   Scattered Clouds
6:15 AM 59.0 °F - 59.0 °F 100% 30.11 in 7.0 mi Calm Calm - N/A   Scattered Clouds
6:55 AM 57.2 °F - 57.2 °F 100% 30.12 in 10.0 mi Calm Calm - N/A   Clear
7:15 AM 57.2 °F - 57.2 °F 100% 30.13 in 7.0 mi Calm Calm - N/A   Clear
7:35 AM 59.0 °F - 59.0 °F 100% 30.13 in 7.0 mi Calm Calm - N/A   Clear
7:55 AM 62.6 °F - 62.6 °F 100% 30.13 in 10.0 mi Calm Calm - N/A   Clear
8:15 AM 62.6 °F - 62.6 °F 100% 30.14 in 10.0 mi Calm Calm - N/A   Clear
8:35 AM 66.2 °F - 66.2 °F 100% 30.13 in 10.0 mi Calm Calm - N/A   Clear
8:55 AM 69.8 °F - 69.8 °F 100% 30.14 in 10.0 mi Calm Calm - N/A   Clear
9:15 AM 73.4 °F - 62.6 °F 69% 30.13 in 10.0 mi Calm Calm - N/A   Clear
9:35 AM 75.2 °F - 60.8 °F 61% 30.13 in 10.0 mi SW 3.5 mph - N/A   Clear
9:55 AM 75.2 °F - 60.8 °F 61% 30.13 in 10.0 mi WSW 4.6 mph - N/A   Clear
10:15 AM 77.0 °F - 60.8 °F 57% 30.14 in 10.0 mi North 4.6 mph - N/A   Clear
10:35 AM 77.0 °F - 60.8 °F 57% 30.14 in 10.0 mi North 3.5 mph - N/A   Clear
10:55 AM 78.8 °F - 60.8 °F 54% 30.14 in 10.0 mi SW 4.6 mph - N/A   Clear
11:15 AM 78.8 °F - 59.0 °F 51% 30.14 in 10.0 mi SSW 3.5 mph - N/A   Clear
11:35 AM 80.6 °F 81.1 °F 59.0 °F 48% 30.14 in 10.0 mi Calm Calm - N/A   Clear
11:55 AM 80.6 °F 81.1 °F 59.0 °F 48% 30.14 in 10.0 mi WSW 5.8 mph - N/A   Mostly Cloudy
12:15 PM 82.4 °F 82.0 °F 57.2 °F 42% 30.13 in 10.0 mi Calm Calm - N/A   Mostly Cloudy
12:55 PM 82.4 °F 82.0 °F 57.2 °F 42% 30.12 in 10.0 mi Calm Calm - N/A   Scattered Clouds
1:15 PM 82.4 °F 82.5 °F 59.0 °F 45% 30.11 in 10.0 mi WSW 4.6 mph - N/A   Scattered Clouds
1:35 PM 82.4 °F 82.0 °F 57.2 °F 42% 30.10 in 10.0 mi West 4.6 mph - N/A   Mostly Cloudy
1:55 PM 82.4 °F 82.5 °F 59.0 °F 45% 30.10 in 10.0 mi WSW 5.8 mph - N/A   Overcast
2:15 PM 82.4 °F 82.5 °F 59.0 °F 45% 30.10 in 10.0 mi Calm Calm - N/A   Overcast
2:35 PM 80.6 °F 80.8 °F 57.2 °F 45% 30.09 in 10.0 mi WSW 3.5 mph - N/A   Overcast
3:15 PM 84.2 °F 83.5 °F 57.2 °F 40% 30.06 in 10.0 mi SSW 6.9 mph - N/A   Mostly Cloudy
3:35 PM 82.4 °F 82.0 °F 57.2 °F 42% 30.05 in 10.0 mi WSW 3.5 mph - N/A   Scattered Clouds
3:55 PM 82.4 °F 82.0 °F 57.2 °F 42% 30.04 in 10.0 mi SW 8.1 mph - N/A   Clear
4:15 PM 84.2 °F 83.8 °F 59.0 °F 42% 30.04 in 10.0 mi SW 5.8 mph - N/A   Clear
4:35 PM 84.2 °F 83.5 °F 57.2 °F 40% 30.03 in 10.0 mi SSW 8.1 mph - N/A   Clear
5:15 PM 82.4 °F 82.0 °F 57.2 °F 42% 30.03 in 10.0 mi SW 4.6 mph - N/A   Scattered Clouds
5:35 PM 82.4 °F 82.0 °F 57.2 °F 42% 30.03 in 10.0 mi South 6.9 mph - N/A   Scattered Clouds
5:55 PM 82.4 °F 82.0 °F 57.2 °F 42% 30.03 in 10.0 mi SW 4.6 mph - N/A   Clear
6:15 PM 80.6 °F 81.1 °F 59.0 °F 48% 30.04 in 10.0 mi SW 4.6 mph - N/A   Scattered Clouds
6:35 PM 80.6 °F 81.1 °F 59.0 °F 48% 30.04 in 10.0 mi South 3.5 mph - N/A   Mostly Cloudy
6:55 PM 77.0 °F - 60.8 °F 57% 30.06 in 10.0 mi ENE 9.2 mph - N/A   Overcast
7:15 PM 73.4 °F - 60.8 °F 65% 30.07 in 10.0 mi East 6.9 mph - N/A   Overcast
7:35 PM 71.6 °F - 60.8 °F 69% 30.07 in 10.0 mi East 3.5 mph - N/A Thunderstorm Mostly Cloudy
7:55 PM 69.8 °F - 59.0 °F 68% 30.07 in 10.0 mi East 3.5 mph - N/A Thunderstorm Mostly Cloudy
8:15 PM 69.8 °F - 59.0 °F 68% 30.08 in 10.0 mi NNW 3.5 mph - N/A Thunderstorm Overcast
8:35 PM 68.0 °F - 60.8 °F 78% 30.07 in 4.0 mi SSW 4.6 mph - 0.09 in Rain , Thunderstorm Heavy Thunderstorms and Rain
8:55 PM 68.0 °F - 68.0 °F 100% 30.09 in 10.0 mi North 5.8 mph - 0.13 in Rain Light Rain
9:15 PM 68.0 °F - 68.0 °F 100% 30.08 in 7.0 mi Calm Calm - N/A   Light Drizzle
9:35 PM 66.2 °F - 66.2 °F 100% 30.08 in 7.0 mi Calm Calm - N/A   Clear
9:55 PM 66.2 °F - 66.2 °F 100% 30.07 in 5.0 mi SE 3.5 mph - N/A   Clear
10:15 PM 64.4 °F - 64.4 °F 100% 30.08 in 5.0 mi Calm Calm - N/A   Clear
10:35 PM 64.4 °F - 64.4 °F 100% 30.08 in 5.0 mi Calm Calm - N/A   Clear
11:15 PM 64.4 °F - 64.4 °F 100% 30.09 in 4.0 mi Calm Calm - N/A   Clear
11:55 PM 62.6 °F - 62.6 °F 100% 30.08 in 4.0 mi Calm Calm - N/A   Clear